Location: Unspecified
(0.0000°N, 0.0000°E)
Time: 22:58:25
(UTC+00:00)

OTV 5 (USA 277) - Pass Details

Date: 18 April 2018
Orbit: 308 x 325 km, 54.5° (Epoch: 23 April)

Event Time Altitude Azimuth Distance (km) Brightness Sun altitude
Rises 17:41:05 0° 209° (SSW) 2,072 ? 4.5°
Reaches altitude 10° 17:43:04 10° 206° (SSW) 1,237 ? 4.0°
Maximum altitude 17:45:48 67° 122° (ESE) 352 ? 3.4°
Drops below altitude 10° 17:48:30 10° 39° (NE) 1,226 ? 2.7°
Enters shadow 17:59:07 -23° 34° (NE) 5,623 ? 0.1°
Exits shadow 18:21:24 -67° 42° (NE) 12,103 ? -5.4°
